User: anonymous   Login
Location: Hochstatterhof
(48.7256°N, 10.3487°E)
Time: 04:42:34
(UTC+00:00)
Language:

Cosmos 2150 Rocket - Orbit

View from above orbital plane
View from above orbital plane
View from above satellite
View from above satellite

Ground track
Ground track

The orbit data is extracted from the following two-line orbital elements,

1 21419U 91041B   24060.61016454  .00000300  00000-0  11454-3 0  9992
2 21419  74.0400 140.0917 0040838 191.4915 168.5309 14.34483028711108
Epoch (UTC): 29 February 2024 14:38:38
Eccentricity: 0.0040838
inclination: 74.0400°
perigee height: 747 km
apogee height: 806 km
right ascension of ascending node: 140.0917°
argument of perigee: 191.4915°
revolutions per day: 14.34483028
mean anomaly at epoch: 168.5309°
orbit number at epoch: 71110

The dashed part of the orbit path shows where the satellite is in the earth's shadow,  

DLR